Zurück zum Katalog

STARLINK-31980

AktivKommunikationVLEO
NORAD 59962·PAYLOAD·🇺🇸 United States

Gestartet Jun 5, 2024 von Cape Canaveral Space Force Station

Loading…

Nächste Überflüge (nächste 24 Stunden)

TLE

AktuellSource: CelesTrak SupGP

Epoche: Sep 15, 2026, 02:14 UTC

1 59962C 24107T   26258.09354167 -.00010446  00000+0 -30855-3 0  2581
2 59962  53.1580 262.6664 0001344  93.6140  91.5082 15.34403267    13

Verfolge STARLINK-31980 in Echtzeit mit AllMySat

Download on the App Store